sat.trackr.live / text

‹ back to catalog

STARLINK-30326

NORAD 57639 · 2023-122H

PAYLOAD ACTIVE UNKNOWN

§ Identity

Operator
Country
US
Launch date
2023-08-17
Launch site
AFETR
Launch vehicle
Mass (kg)
RCS (m²)

Purposes: comms

External: N2YO · Heavens-Above · Gunter

§ Orbital elements

Epoch: 2026-09-20T04:38:13.638624Z

Period
94.27 min
Inclination
43.0048°
Eccentricity
0.0001366
Mean motion
15.27589510 rev/d
Perigee alt
482.1 km
Apogee alt
484.0 km
Semi-major
6,861.2 km
B*
5.9316e-5
RAAN
74.0505°
Arg perigee
264.4459°
Mean anomaly
95.6237°
Rev number
17,195

§ Raw data

STARLINK-303261 57639U 23122H   26263.19321341  .00001371  00000+0  59316-4 0  99922 57639  43.0048  74.0505 0001366 264.4459  95.6237 15.27589510171950

JSON: /api/v1/satellites/57639 · /tle

For live sub-satellite position, see the globe view (requires WebGL).

§ Visibility from observer

Set your observer location to see the next 7 days of passes ≥ 10°. The values pass through the URL so the page stays shareable.

No JS? Fill the form by hand. The geolocation button needs JavaScript.